Regional Weather Roundup
Issued by NWS

Home | Current Version | Previous Version | Graphics & Text | Print | Product List | Glossary On
Versions: 1 2 3 4 5 6 7 8 9 10 11 12 13 14 15 16 17 18 19 20 21 22 23 24 25 26 27 28 29 30 31 32 33 34 35 36 37 38 39 40 41 42 43 44 45 46 47 48 49 50
927
ASUS43 KLMK 250510
RWRKY
KENTUCKY REGIONAL WEATHER ROUNDUP
NATIONAL WEATHER SERVICE LOUISVILLE KY
100 AM EDT SUN SEP 25 2016

NOTE "FAIR" INDICATES FEW OR NO CLOUDS BELOW 12,000 FEET
WITH NO SIGNIFICANT WEATHER AND/OR OBSTRUCTIONS TO VISIBILITY.

KYZ001>023-026-027-061>063-070>075-250600-
WESTERN AND SOUTH CENTRAL KENTUCKY

CITY           SKY/WX    TMP DP  RH WIND       PRES   REMARKS
PADUCAH        CLEAR     71  67  87 CALM      30.06R
HENDERSON      CLEAR     70  63  78 CALM      30.06S
OWENSBORO      NOT AVBL
HOPKINSVILLE   CLEAR     73  68  84 CALM      30.07S
BOWLING GREEN  CLEAR     70  67  90 CALM      30.08S FOG
GLASGOW        CLEAR     67  67 100 CALM      30.09S FOG
$$

KYZ024-025-028>034-038-045-046-053-250600-
NORTH CENTRAL KENTUCKY

CITY           SKY/WX    TMP DP  RH WIND       PRES   REMARKS
LOUISVILLE/SDF CLEAR     77  66  68 E5        30.09S
LOUISVILLE/LOU CLEAR     76  66  71 NE6       30.10S
FORT KNOX      CLEAR     71  67  86 NE5       30.09S
$$

KYZ035>037-039>044-047>052-055>060-089>105-250600-
NORTHEAST KENTUCKY

CITY           SKY/WX    TMP DP  RH WIND       PRES   REMARKS
LEXINGTON      CLEAR     73  64  73 NE6       30.12S
COVINGTON      CLEAR     72  65  78 E7        30.13S
FRANKFORT      CLEAR     72  65  78 E3        30.10F
$$

KYZ054-064>069-076>088-106>120-250600-
SOUTHEAST KENTUCKY

CITY           SKY/WX    TMP DP  RH WIND       PRES   REMARKS
JACKSON        CLEAR     72  64  76 CALM      30.13S
LONDON         CLEAR     68  64  87 CALM      30.12S
SOMERSET       CLEAR     64  64 100 CALM      30.12S
MIDDLESBORO    CLEAR     64  64  99 CALM      30.13F
MONTICELLO     CLEAR     63  61  93 CALM      30.12S
$$





USA.gov is the U.S. government's official web portal to all federal, state and local government web resources and services.